Home   Weather   13°04'N, 80°15'E   Past weeks
Flag for India

Past Weather in 13°04'N, 80°15'E, India — Yesterday and Last 2 Weeks

Now
77 °F

Thunderstorms. Partly cloudy.


Feels Like: 78 °F
Forecast: 87 / 81 °F
Wind: 3 mph from Northwest

Location: Madras / Minambakkam

Current Time: Oct 16, 2019 at 5:55:20 am

Latest Report: Oct 16, 2019 at 5:00 am


Visibility: 2 mi

Pressure: 29.83 "Hg

Humidity: 89%

Dew Point: 73 °F

Location of 13°04'N, 80°15'ELocation

Past Weather in 13°04'N, 80°15'E — Graph

°F

13°04'N, 80°15'E Temperature Yesterday

Maximum temperature yesterday: 91 °F (at 11:30 am)
Minimum temperature yesterday: 79 °F (at 12:00 am)
Average temperature yesterday: 84 °F

High & Low Weather Summary for the Past Weeks

 TemperatureHumidityPressure
High95 °F (Oct 7, 12:30 pm)100% (Oct 15, 1:30 am)29.95 "Hg (Oct 15, 1:30 am)
Low77 °F (Oct 10, 1:00 pm)47% (Oct 7, 12:30 pm)29.74 "Hg (Oct 4, 3:30 pm)
Average86 °F75%29.84 "Hg
* Reported Oct 1 4:30 am — Oct 16 4:30 am, 13°04'N, 80°15'E. Weather by CustomWeather, © 2019

Note: Actual official high and low records may vary slightly from our data, if they occured in-between our weather recording intervals... More about our weather records

Advertising

13°04'N, 80°15'E Weather History for the Previous 24 Hours

Scroll right to see more
 ConditionsComfort  
Time TempWeatherWind HumidityBarometerVisibility
4:30 am
Wed, Oct 16
77 °FThunderstorms. Partly cloudy.3 mph89%29.83 "Hg1 mi
4:00 am77 °FThunderstorms. Partly cloudy.6 mph89%29.83 "Hg1 mi
3:30 am77 °FThunderstorms. Partly cloudy.9 mph94%29.83 "Hg1 mi
2:30 am79 °FThunderstorms. Partly cloudy.5 mph89%29.83 "Hg1 mi
2:00 am79 °FThunderstorms. Partly cloudy.5 mph94%29.83 "Hg1 mi
1:30 am81 °FThunderstorms. Partly cloudy.7 mph94%29.83 "Hg1 mi
1:00 am81 °FThunderstorms. Partly cloudy.7 mph94%29.83 "Hg1 mi
12:30 am81 °FThunderstorms. Partly cloudy.5 mph94%29.83 "Hg1 mi
12:00 am81 °FThunderstorms. Partly cloudy.7 mph94%29.86 "Hg1 mi
11:30 pm
Tue, Oct 15
82 °FFog.No wind89%29.86 "Hg2 mi
11:00 pm82 °FFog.No wind89%29.86 "Hg2 mi
10:30 pm82 °FFog.5 mph89%29.86 "Hg2 mi
10:00 pm82 °FPartly cloudy.6 mph89%29.86 "Hg2 mi
9:30 pm82 °FThunderstorms. Partly cloudy.5 mph89%29.86 "Hg2 mi
9:00 pm82 °FThunderstorms. Partly cloudy.5 mph89%29.86 "Hg2 mi
8:30 pm84 °FFog.7 mph84%29.86 "Hg2 mi
8:00 pm84 °FFog.7 mph84%29.83 "Hg2 mi
7:30 pm84 °FPartly cloudy.9 mph89%29.83 "Hg2 mi
7:00 pm84 °FThunderstorms. Partly cloudy.10 mph89%29.83 "Hg2 mi
6:30 pm86 °FFog.9 mph75%29.80 "Hg3 mi
6:00 pm86 °FFog.10 mph75%29.80 "Hg3 mi
5:30 pm88 °FScattered clouds.9 mph70%29.77 "Hg3 mi
5:00 pm88 °FScattered clouds.9 mph70%29.77 "Hg4 mi
4:30 pm88 °FScattered clouds.8 mph66%29.77 "Hg4 mi
4:00 pm90 °FScattered clouds.10 mph63%29.77 "Hg4 mi
3:30 pm90 °FScattered clouds.10 mph63%29.77 "Hg4 mi
3:00 pm91 °FScattered clouds.9 mph59%29.77 "Hg4 mi
2:30 pm90 °FScattered clouds.8 mph67%29.77 "Hg4 mi
2:00 pm91 °FBroken clouds.8 mph59%29.77 "Hg4 mi
1:30 pm91 °FBroken clouds.9 mph63%29.77 "Hg4 mi
1:00 pm91 °FBroken clouds.12 mph63%29.80 "Hg4 mi
12:30 pm90 °FBroken clouds.12 mph67%29.83 "Hg4 mi
12:00 pm91 °FBroken clouds.9 mph63%29.83 "Hg4 mi
11:30 am91 °FBroken clouds.8 mph67%29.83 "Hg4 mi
11:00 am90 °FBroken clouds.10 mph71%29.86 "Hg4 mi
10:30 am88 °FBroken clouds.8 mph75%29.89 "Hg4 mi
10:00 am88 °FBroken clouds.8 mph75%29.89 "Hg4 mi
9:30 am88 °FBroken clouds.8 mph79%29.89 "Hg4 mi
9:00 am86 °FBroken clouds.6 mph79%29.89 "Hg4 mi
8:30 am86 °FBroken clouds.3 mph84%29.86 "Hg4 mi
8:00 am82 °FBroken clouds.3 mph89%29.86 "Hg4 mi
7:30 am82 °FBroken clouds.3 mph89%29.83 "Hg4 mi
7:00 am81 °FDrizzle. Broken clouds.3 mph94%29.83 "Hg2 mi
6:30 am79 °FFog.5 mph100%29.83 "Hg3 mi
6:00 am79 °FFog.3 mph100%29.83 "Hg3 mi
5:30 am79 °FFog.3 mph94%29.83 "Hg3 mi
5:00 am79 °FFog.3 mph94%29.80 "Hg3 mi
Weather by CustomWeather, © 2019

See weather overview